Theta_e
312 311 310 309 309 307 303 297 298 311 310 299 300 298 304 303 301 302 300 299 297 295 295 293 293 294 297 301 299 293 294 290 285 288 293 295 291 289 288 280 281 287 288 285
312 311 309 309 309 307 302 294 296 309 308 294 296 303 302 302 300 299 298 297 299 297 293 290 295 297 300 302 299 295 293 286 280 281 285 291 289 291 291 288 285 283 279 283
312 311 309 309 308 307 304 295 295 298 302 301 296 296 297 298 301 299 298 296 297 294 291 292 291 295 299 301 300 303 297 287 283 278 281 286 285 288 290 287 282 281 284 286
312 311 310 309 308 308 300 297 295 296 292 294 294 295 295 297 295 297 297 294 294 292 287 288 288 292 295 298 301 293 290 283 286 287 289 290 288 288 288 285 285 282 285 286
312 311 309 309 308 307 300 294 293 296 295 296 295 294 294 295 295 295 294 292 293 292 288 288 287 289 289 289 294 289 289 283 286 285 290 289 287 289 289 288 289 288 288 287
311 310 309 309 309 305 296 299 300 296 295 295 293 293 295 296 295 297 297 295 292 291 292 293 292 292 293 292 290 288 287 285 282 280 287 286 281 286 287 288 290 289 286 290
310 310 307 308 309 309 302 298 298 294 291 294 294 298 297 295 295 293 295 294 291 295 297 295 292 288 291 291 290 291 286 283 281 279 281 275 285 292 295 292 295 295 294 294
309 309 308 309 309 310 299 300 299 295 290 295 296 296 294 295 294 293 294 295 296 296 293 286 284 284 287 290 291 289 290 286 284 278 276 283 287 294 292 288 289 296 294 296
309 309 309 309 309 310 299 299 301 297 292 292 297 294 294 289 288 291 295 296 296 293 288 285 280 278 284 284 289 293 291 293 287 284 279 277 285 296 299 295 284 296 296 295
308 309 309 309 310 310 302 299 300 297 292 296 297 292 291 292 289 288 291 292 292 291 283 281 279 281 288 280 284 284 282 284 284 284 282 284 292 297 300 282 282 294 296 295
307 307 308 308 309 310 303 299 301 297 293 295 298 298 293 293 289 287 290 289 289 286 281 282 281 281 284 282 286 286 283 284 284 285 283 280 298 296 289 290 293 295 295 294
306 306 306 307 308 309 307 296 302 301 295 292 299 299 300 298 295 290 288 288 287 288 283 281 283 282 281 281 277 289 281 285 281 283 283 293 299 297 298 297 295 294 294 294
305 305 305 306 307 308 308 297 298 296 292 292 296 296 300 302 299 297 289 289 291 289 289 285 282 280 282 277 280 283 288 293 287 289 290 293 297 299 299 297 297 299 296 293
304 305 305 305 306 308 308 300 299 295 291 289 295 301 298 302 301 299 297 295 292 290 288 283 282 281 285 281 282 282 286 287 286 286 290 293 295 297 297 298 298 297 294 293
304 305 306 305 306 307 306 305 302 298 292 286 290 296 299 301 302 301 300 296 291 288 286 282 281 282 283 282 283 281 286 285 282 281 289 291 292 297 298 296 295 294 293 292
305 305 305 305 305 306 302 294 297 304 295 288 285 294 299 301 301 298 297 296 294 293 290 286 287 287 286 279 279 286 289 292 292 290 294 294 296 297 298 295 294 294 293 292
305 305 304 305 305 303 296 295 299 304 298 293 284 289 296 300 297 293 292 292 291 292 288 287 285 284 288 287 283 287 290 292 295 296 294 293 294 291 296 295 294 295 294 293
304 304 304 305 306 304 299 302 304 303 293 290 284 286 293 298 292 290 293 291 293 289 289 289 285 284 288 280 286 289 292 294 297 297 295 296 294 296 295 295 293 292 290 291
304 304 305 303 301 298 298 305 303 300 294 287 284 283 284 297 295 293 294 294 289 292 283 288 288 286 282 286 288 290 293 293 297 295 295 295 294 293 293 292 291 290 290 291
304 301 298 293 298 307 305 298 293 293 292 289 288 290 288 294 293 292 292 292 287 284 287 290 282 282 288 291 292 293 296 297 296 292 288 289 289 291 291 290 291 291 291 291
298 295 293 300 304 298 295 289 287 288 284 287 288 288 289 296 290 290 290 286 287 282 284 285 286 282 288 297 298 297 296 295 294 292 291 291 290 291 290 290 292 291 290 289
299 298 300 298 294 291 288 286 288 286 284 288 287 288 290 291 292 288 287 285 286 281 289 287 282 287 297 296 292 293 294 292 292 293 293 292 293 292 291 291 290 289 290 290
299 294 291 290 288 283 284 282 284 284 288 289 289 287 290 289 289 286 288 285 284 288 287 285 288 295 297 294 293 292 291 292 292 292 292 293 293 294 291 290 291 291 290 290
290 287 283 285 283 285 286 286 289 290 293 290 290 288 288 288 285 286 283 287 288 285 280 283 288 294 296 291 291 292 289 290 291 291 292 292 293 292 292 291 291 290 289 288
288 288 283 286 290 292 292 294 295 297 295 291 289 290 291 288 286 286 284 286 282 284 284 286 289 291 289 291 290 289 289 289 290 294 292 292 292 291 290 291 290 289 289 288
290 288 287 290 289 291 292 291 294 298 294 292 291 284 281 284 286 285 283 281 276 282 288 290 291 288 288 288 289 290 291 290 290 294 292 293 292 291 290 290 289 288 288 287
289 287 291 291 289 288 292 295 296 299 293 287 285 282 282 286 284 283 283 283 290 291 292 292 289 287 287 288 291 292 292 291 290 292 292 291 292 291 289 287 288 287 287 287
Wind_Speed
11 16 18 20 21 23 7 4 1 3 2 3 1 4 4 6 2 6 6 4 3 3 3 4 3 3 3 2 1 4 2 4 0 3 6 4 3 3 4 6 4 1 1 7
12 14 17 19 19 12 4 3 4 4 5 2 1 5 4 1 2 3 3 4 3 3 3 5 3 4 1 5 4 5 4 2 2 7 5 5 6 2 4 4 3 6 5 5
12 12 16 18 19 16 2 1 3 4 3 0 3 4 3 4 4 4 5 4 6 5 5 6 3 3 6 3 4 8 7 3 6 6 4 3 3 3 4 5 4 4 6 8
14 12 15 18 19 20 3 1 2 1 2 2 3 1 1 4 3 4 8 6 5 5 3 3 3 3 2 6 4 4 5 4 3 4 4 3 5 10 6 8 7 9 3 14
13 11 13 17 19 16 2 2 3 5 3 3 4 2 4 4 4 4 3 6 5 5 5 2 4 3 2 2 2 3 4 3 2 3 5 5 8 10 9 11 12 14 10 15
10 11 12 15 17 11 3 3 2 2 4 4 3 3 4 2 6 6 5 8 5 6 5 3 2 3 3 5 7 3 4 6 3 4 3 7 7 6 8 5 6 6 7 7
9 10 14 14 14 8 1 2 1 3 3 3 1 2 3 5 3 7 3 5 5 4 1 1 3 3 5 4 6 5 6 6 4 2 2 3 6 4 6 4 1 1 2 1
10 10 12 13 13 12 1 2 2 2 2 3 5 5 4 4 6 5 4 4 2 2 5 4 5 5 1 3 5 7 5 5 2 3 3 7 6 0 1 1 4 5 4 4
11 11 12 12 12 13 1 2 1 2 1 2 6 2 3 2 3 4 3 4 3 7 4 4 2 3 1 1 3 3 4 3 4 3 3 6 4 2 2 1 6 5 2 4
12 12 13 12 13 12 2 3 2 2 0 3 4 3 2 3 3 4 2 4 5 4 3 3 3 3 1 1 3 5 3 1 7 5 5 6 4 3 1 4 7 3 2 5
10 11 13 13 14 13 4 4 2 2 1 4 3 5 3 2 3 4 2 4 4 4 4 3 2 2 1 1 1 4 6 5 3 2 4 7 6 6 2 5 3 4 4 6
11 9 11 13 13 13 4 2 2 1 2 4 2 4 3 3 6 6 3 4 2 3 5 1 2 0 2 2 2 2 1 6 6 8 6 2 3 5 7 5 4 4 4 6
10 9 9 11 12 12 4 1 3 3 3 4 3 2 3 4 3 4 6 1 4 3 2 3 2 1 3 2 5 2 2 3 3 1 4 7 8 7 5 5 7 6 5 4
10 9 9 8 10 11 3 1 1 3 2 1 1 4 3 3 4 6 5 7 5 6 3 3 2 2 2 3 3 3 5 2 2 5 6 5 6 5 6 8 6 6 3 2
10 10 11 8 9 10 2 1 1 1 4 2 3 5 4 3 8 10 8 8 6 3 3 3 2 1 1 1 2 4 4 6 5 7 8 5 7 6 6 6 5 3 2 6
11 10 9 8 8 9 1 2 1 0 3 3 1 3 1 5 11 10 9 4 4 3 3 1 2 3 2 1 3 6 5 4 5 6 4 7 7 7 5 2 2 2 5 5
10 9 8 8 7 2 1 1 2 1 2 1 2 2 3 7 4 3 3 3 2 3 2 2 2 3 4 3 4 6 5 6 5 4 2 3 3 2 5 3 3 5 6 6
9 8 7 8 4 2 1 2 4 2 3 3 1 1 2 3 2 2 2 2 1 2 2 1 3 3 2 4 9 7 7 7 6 4 2 1 3 5 3 2 4 5 6 6
7 7 8 2 2 1 1 3 3 2 2 1 2 3 3 4 2 3 1 2 1 1 2 2 3 2 5 8 6 5 7 4 2 4 5 5 5 2 3 4 7 6 8 7
6 2 2 1 1 9 7 2 2 3 2 2 2 1 2 3 1 2 2 1 1 1 4 3 3 5 6 8 8 7 5 3 4 1 3 3 3 4 5 6 6 6 6 6
1 1 1 1 3 1 1 1 1 1 2 2 3 4 2 1 3 2 2 3 1 2 2 3 2 4 4 5 3 4 5 5 5 7 6 5 2 2 4 6 7 6 7 7
1 2 1 1 1 0 2 3 2 3 3 4 4 4 4 1 3 4 2 2 2 4 4 3 3 3 4 7 7 6 6 8 8 7 5 2 4 3 4 5 6 7 7 6
1 2 1 1 2 2 3 4 3 3 3 4 3 3 4 2 4 3 2 2 3 2 3 3 2 3 1 3 4 6 6 7 6 3 2 5 6 7 6 6 6 9 7 6
0 1 2 3 3 3 4 2 1 3 2 3 3 3 3 2 3 2 3 3 2 3 2 3 2 4 3 3 2 5 4 5 4 1 6 6 6 6 5 6 7 9 6 8
1 2 3 4 4 3 4 3 1 2 3 3 3 3 2 2 2 2 1 2 2 3 2 3 3 3 5 4 3 4 4 3 4 3 5 5 6 5 5 5 7 9 8 6
2 3 3 3 3 3 1 2 1 1 2 3 3 3 3 2 0 2 4 3 4 3 3 2 4 5 4 4 4 3 2 3 2 4 5 5 5 5 4 5 7 9 9 9
2 2 2 5 6 4 1 2 1 2 2 2 3 4 5 3 2 3 3 3 1 2 2 1 5 7 5 4 3 2 3 3 3 4 4 4 5 5 5 5 6 7 7 7
Wind_Direction
334 329 335 335 338 341 30 346 1 329 24 59 198 178 205 288 50 36 48 69 98 107 102 84 100 111 111 109 89 69 8 117 142 258 309 233 161 134 111 124 240 212 165 264
330 330 335 335 336 2 324 339 277 316 81 145 272 297 275 309 82 33 67 44 70 80 108 91 95 94 151 135 96 154 173 47 38 352 355 14 75 61 92 100 87 206 173 251
320 335 335 332 331 339 181 357 343 323 58 182 184 207 258 121 30 71 76 69 68 76 58 36 114 83 7 35 94 84 93 104 153 193 198 171 260 251 198 156 172 225 219 268
337 341 337 335 335 342 132 158 290 180 287 324 290 76 291 127 95 69 36 28 34 129 101 81 91 88 106 28 43 63 96 128 168 239 240 218 241 272 271 204 214 221 234 262
328 338 339 340 341 344 45 39 14 344 290 293 282 23 348 127 106 42 50 103 46 78 107 121 163 120 100 146 24 64 8 146 108 281 276 286 280 272 262 264 266 260 260 271
330 339 346 344 350 359 21 318 337 98 290 338 3 212 171 94 117 20 75 139 101 80 146 146 190 191 173 158 146 125 113 126 99 275 356 338 304 246 227 231 226 213 225 238
350 344 351 347 350 13 292 272 15 33 295 353 323 320 90 108 75 132 58 71 101 211 124 25 83 137 224 198 206 138 136 129 137 222 35 238 248 282 262 224 178 239 237 154
350 344 348 346 345 351 311 296 35 46 295 307 353 31 86 74 57 65 77 35 113 109 54 50 23 350 24 217 197 191 148 141 162 169 196 300 301 161 112 114 279 204 215 246
354 350 347 344 346 349 16 284 249 92 98 331 301 348 24 109 91 39 66 9 8 62 78 73 126 198 251 327 102 87 114 102 125 155 210 240 244 263 190 117 273 195 214 273
347 344 342 347 344 347 357 287 10 106 107 290 355 53 93 100 73 98 39 1 28 58 77 102 155 242 275 208 199 169 105 64 205 207 244 275 248 284 107 121 247 225 220 263
325 341 341 346 342 344 22 276 353 98 174 282 15 354 55 53 66 130 224 55 352 42 72 128 202 162 266 335 255 181 166 172 195 211 246 251 12 328 217 236 265 248 262 258
314 329 332 332 332 335 11 307 335 343 141 248 310 262 262 177 176 131 28 149 110 168 94 48 96 57 19 125 251 20 226 180 182 182 220 212 222 223 271 243 238 267 253 271
324 314 324 323 326 331 350 283 315 25 40 318 17 348 11 103 131 163 113 329 153 71 171 144 139 196 129 193 243 274 295 177 221 123 261 227 256 248 240 254 249 269 278 266
321 319 310 313 323 328 333 3 319 81 95 101 297 357 27 86 96 75 106 122 65 100 64 83 117 168 136 230 248 193 214 4 217 258 275 260 273 243 258 277 286 309 319 332
322 322 315 325 324 328 328 307 68 151 125 195 278 316 357 106 99 91 92 104 104 93 67 69 226 257 92 294 352 250 194 205 170 238 232 216 242 251 262 285 296 40 357 315
314 313 323 324 324 327 42 340 355 194 115 75 84 305 127 81 83 80 66 60 66 71 107 146 338 260 125 111 249 255 232 187 203 246 252 210 259 295 298 113 100 282 310 308
308 317 315 317 310 312 169 244 304 297 88 50 359 46 88 114 83 46 50 24 92 102 108 157 215 280 174 222 246 257 270 294 291 274 215 292 3 333 59 64 329 317 295 289
302 303 307 307 332 121 217 0 2 90 83 66 110 266 120 176 99 101 178 97 79 56 139 169 193 315 228 253 242 268 276 287 276 270 132 65 83 70 55 330 315 304 310 307
303 308 308 300 236 192 154 119 37 41 121 148 131 167 206 156 106 121 85 116 125 109 162 248 118 229 224 232 246 260 267 245 275 96 91 85 95 78 331 323 337 334 314 313
306 311 237 184 278 123 130 46 34 18 0 55 241 253 216 104 93 111 125 88 132 227 229 136 181 252 255 258 240 231 278 92 113 137 22 65 36 11 340 329 307 306 314 318
8 240 52 347 58 57 59 122 231 135 277 210 228 204 147 193 146 128 145 159 114 260 250 180 246 269 260 309 3 99 117 82 86 101 93 98 160 351 331 333 351 347 333 328
349 102 67 31 42 204 225 189 176 220 238 180 175 199 195 249 112 110 210 143 164 255 142 224 251 252 352 12 95 79 92 104 98 104 119 98 54 10 15 25 356 330 325 345
327 60 50 238 171 203 228 200 198 227 208 176 155 139 152 35 50 68 144 160 226 97 234 211 238 112 247 52 92 83 76 97 110 96 95 66 37 51 58 13 350 344 351 7
161 163 202 224 181 245 219 213 160 243 211 156 127 104 128 134 77 130 153 218 66 245 241 244 202 211 256 110 71 98 87 94 121 52 47 49 77 70 34 28 358 352 358 2
214 221 230 217 243 246 260 218 205 198 131 114 88 66 93 75 113 150 194 233 244 244 242 217 214 184 132 136 124 120 96 65 41 26 63 89 84 84 35 31 6 6 2 354
210 229 267 265 249 260 48 341 51 54 100 89 53 89 63 90 215 211 228 180 222 253 273 223 130 149 160 154 135 151 123 80 11 74 94 92 86 74 40 42 16 11 10 1
249 261 231 249 271 255 257 128 312 101 57 122 114 122 191 173 206 236 187 195 183 270 330 211 152 165 180 172 156 144 75 54 54 92 85 93 104 71 51 47 12 359 354 352